Date String (YYYY-MM-DD hh:mm:ss) UTC,Instrument flags,Ambient pressure (hPa),Sample flow (lpm),Bypass flow (lpm),Sample temperature (°C),Ambient temperature (°C),ASC tube jacket temperature (°C),LED temperature (°C),Box temperature (°C),Sample RH (%),Span deviation,Mass concentration (μg/m³),Mass concentration (μg/m³),Mass concentration (μg/m³)
DateTimeUTC,F1_M11,P_M11,Q1_M11,Q2_M11,T1_M11,T2_M11,T3_M11,T4_M11,T5_M11,U1_M11,ZSPAN_M11,X0_M11,X2_M11,X1_M11
2021-09-14 10:00:00,,0828.9,5.00,0.00,29.5,28.7,00.0,38.6,31.2,23.5,0000.0,0012.73,0004.56,0003.58
2021-09-14 10:01:00,,0829.0,5.01,0.00,29.5,28.7,00.0,38.6,31.2,23.5,0000.0,0013.20,0004.60,0003.58
2021-09-14 10:02:00,,0828.8,5.02,0.00,29.5,28.7,00.0,38.6,31.2,23.4,0000.0,0013.18,0004.62,0003.59
2021-09-14 10:03:00,,0829.1,4.99,0.00,29.4,28.7,00.0,38.6,31.1,23.5,0000.0,0012.83,0004.65,0003.60
2021-09-14 10:04:00,,0828.9,5.00,0.00,29.5,28.7,00.0,38.6,31.2,23.5,0000.0,0012.92,0004.64,0003.60
2021-09-14 10:05:00,,0828.9,5.00,0.00,29.5,28.7,00.0,38.6,31.1,23.5,0000.0,0012.76,0004.64,0003.60
2021-09-14 10:06:00,,0829.0,4.99,0.00,29.4,28.7,00.0,38.6,31.1,23.6,0000.0,0012.66,0004.63,0003.59
2021-09-14 10:07:00,,0829.1,5.00,0.00,29.4,28.7,00.0,38.6,31.1,23.7,0000.0,0012.86,0004.61,0003.60
2021-09-14 10:08:00,,0829.0,5.00,0.00,29.5,28.7,00.0,38.6,31.2,23.8,0000.0,0012.92,0004.62,0003.60
2021-09-14 10:09:00,,0829.1,5.00,0.00,29.4,28.7,00.0,38.6,31.2,23.8,0000.0,0011.72,0004.62,0003.60
2021-09-14 10:10:00,,0829.1,5.00,0.00,29.4,28.7,00.0,38.6,31.1,23.8,0000.0,0011.61,0004.65,0003.59
2021-09-14 10:11:00,,0829.1,5.00,0.00,29.4,28.7,00.0,38.6,31.1,23.9,0000.0,0011.79,0004.64,0003.58
2021-09-14 10:12:00,,0828.8,5.00,0.00,29.5,28.8,00.0,38.6,31.1,24.0,0000.0,0011.83,0004.60,0003.57
2021-09-14 10:13:00,,0828.9,4.99,0.00,29.5,28.8,00.0,38.6,31.2,24.1,0000.0,0011.78,0004.59,0003.57
2021-09-14 10:14:00,,0828.7,5.00,0.00,29.5,28.8,00.0,38.6,31.2,24.2,0000.0,0011.47,0004.56,0003.56
2021-09-14 10:15:00,,0828.5,5.00,0.00,29.5,28.8,00.0,38.6,31.2,24.2,0000.0,0011.30,0004.61,0003.56
2021-09-14 10:16:00,,0828.9,5.00,0.00,29.5,28.8,00.0,38.6,31.2,24.3,0000.0,0010.85,0004.63,0003.56
2021-09-14 10:17:00,,0829.0,4.99,0.00,29.5,28.8,00.0,38.7,31.2,24.4,0000.0,0010.86,0004.60,0003.54
2021-09-14 10:18:00,,0828.6,5.00,0.00,29.5,28.8,00.0,38.7,31.2,24.3,0000.0,0010.47,0004.60,0003.54
2021-09-14 10:19:00,,0828.7,5.02,0.00,29.5,28.8,00.0,38.7,31.2,24.3,0000.0,0009.92,0004.57,0003.53
2021-09-14 10:20:00,,0828.8,4.99,0.00,29.5,28.8,00.0,38.7,31.2,24.4,0000.0,0009.93,0004.57,0003.53
2021-09-14 10:21:00,,0828.6,5.00,0.00,29.5,28.8,00.0,38.7,31.2,24.4,0000.0,0009.83,0004.53,0003.53
2021-09-14 10:22:00,,0829.0,5.00,0.00,29.5,28.8,00.0,38.7,31.2,24.5,0000.0,0009.95,0004.55,0003.53
2021-09-14 10:23:00,,0828.7,5.00,0.00,29.5,28.8,00.0,38.7,31.2,24.6,0000.0,0010.32,0004.61,0003.53
2021-09-14 10:24:00,,0828.9,5.00,0.00,29.5,28.8,00.0,38.7,31.2,24.6,0000.0,0010.35,0004.62,0003.52
2021-09-14 10:25:00,,0828.9,5.00,0.00,29.5,28.8,00.0,38.7,31.2,24.6,0000.0,0010.91,0004.63,0003.51
2021-09-14 10:26:00,,0828.8,5.01,0.00,29.5,28.8,00.0,38.7,31.2,24.6,0000.0,0010.97,0004.60,0003.50
2021-09-14 10:27:00,,0828.9,5.00,0.00,29.5,28.8,00.0,38.7,31.2,24.6,0000.0,0010.73,0004.54,0003.49
2021-09-14 10:28:00,,0828.6,5.00,0.00,29.5,28.7,00.0,38.7,31.2,24.6,0000.0,0011.09,0004.56,0003.49
2021-09-14 10:29:00,,0828.7,4.99,0.00,29.5,28.7,00.0,38.6,31.1,24.5,0000.0,0011.77,0004.57,0003.48
2021-09-14 10:30:00,,0828.8,5.00,0.00,29.4,28.7,00.0,38.6,31.1,24.5,0000.0,0011.83,0004.55,0003.48
2021-09-14 10:31:00,,0829.2,5.01,0.00,29.4,28.7,00.0,38.6,31.1,24.4,0000.0,0012.08,0004.53,0003.48
2021-09-14 10:32:00,,0829.1,5.00,0.00,29.4,28.7,00.0,38.6,31.1,24.4,0000.0,0012.10,0004.51,0003.47
2021-09-14 10:33:00,,0829.1,4.99,0.00,29.4,28.7,00.0,38.6,31.2,24.3,0000.0,0012.11,0004.47,0003.48
2021-09-14 10:34:00,,0829.2,5.01,0.00,29.4,28.7,00.0,38.6,31.2,24.4,0000.0,0011.54,0004.38,0003.46
2021-09-14 10:35:00,,0828.7,5.00,0.00,29.4,28.7,00.0,38.6,31.1,24.4,0000.0,0011.63,0004.37,0003.46
2021-09-14 10:36:00,,0828.7,5.00,0.00,29.4,28.7,00.0,38.6,31.1,24.4,0000.0,0011.38,0004.35,0003.46
2021-09-14 10:37:00,,0828.9,4.99,0.00,29.4,28.7,00.0,38.6,31.1,24.4,0000.0,0011.39,0004.34,0003.46
2021-09-14 10:38:00,,0829.1,5.01,0.00,29.4,28.7,00.0,38.6,31.1,24.3,0000.0,0011.56,0004.38,0003.47
2021-09-14 10:39:00,,0828.7,5.00,0.00,29.4,28.7,00.0,38.6,31.1,24.2,0000.0,0011.21,0004.39,0003.47
2021-09-14 10:40:00,,0828.7,5.00,0.00,29.4,28.7,00.0,38.6,31.1,24.2,0000.0,0010.80,0004.42,0003.47
2021-09-14 10:41:00,,0828.7,4.99,0.00,29.4,28.7,00.0,38.6,31.1,24.1,0000.0,0011.04,0004.40,0003.45
2021-09-14 10:42:00,,0829.1,4.99,0.00,29.4,28.7,00.0,38.6,31.1,24.1,0000.0,0011.69,0004.42,0003.43
2021-09-14 10:43:00,,0829.0,5.00,0.00,29.4,28.7,00.0,38.6,31.1,24.1,0000.0,0013.24,0004.44,0003.42
2021-09-14 10:44:00,,0828.9,5.00,0.00,29.4,28.7,00.0,38.6,31.2,24.1,0000.0,0013.42,0004.42,0003.41
2021-09-14 10:45:00,,0829.1,5.00,0.00,29.5,28.8,00.0,38.6,31.2,24.0,0000.0,0013.26,0004.42,0003.42
2021-09-14 10:46:00,,0828.8,4.99,0.00,29.5,28.8,00.0,38.6,31.2,24.0,0000.0,0013.60,0004.40,0003.41
2021-09-14 10:47:00,,0828.5,5.01,0.00,29.5,28.8,00.0,38.6,31.2,24.0,0000.0,0013.53,0004.42,0003.40
2021-09-14 10:48:00,,0828.5,5.00,0.00,29.5,28.8,00.0,38.6,31.2,24.0,0000.0,0013.65,0004.42,0003.39
2021-09-14 10:49:00,,0828.5,5.00,0.00,29.5,28.8,00.0,38.6,31.2,24.1,0000.0,0014.63,0004.41,0003.38
2021-09-14 10:50:00,,0828.4,5.00,0.00,29.5,28.8,00.0,38.6,31.2,24.1,0000.0,0015.12,0004.41,0003.37
2021-09-14 10:51:00,,0828.4,5.02,0.00,29.5,28.7,00.0,38.6,31.2,24.1,0000.0,0015.10,0004.40,0003.38
2021-09-14 10:52:00,,0828.3,4.98,0.00,29.5,28.7,00.0,38.6,31.2,24.1,0000.0,0015.39,0004.42,0003.38
2021-09-14 10:53:00,,0828.3,5.01,0.00,29.4,28.7,00.0,38.6,31.1,24.0,0000.0,0014.71,0004.45,0003.39
2021-09-14 10:54:00,,0828.4,5.01,0.00,29.4,28.7,00.0,38.6,31.1,23.9,0000.0,0013.23,0004.44,0003.39
2021-09-14 10:55:00,,0828.3,4.99,0.00,29.4,28.7,00.0,38.6,31.1,23.7,0000.0,0012.59,0004.43,0003.39
2021-09-14 10:56:00,,0828.3,4.99,0.00,29.4,28.7,00.0,38.6,31.1,23.6,0000.0,0012.42,0004.44,0003.37
2021-09-14 10:57:00,,0828.4,5.00,0.00,29.4,28.7,00.0,38.6,31.1,23.7,0000.0,0012.03,0004.45,0003.37
2021-09-14 10:58:00,,0828.4,4.99,0.00,29.4,28.7,00.0,38.6,31.2,23.6,0000.0,0011.60,0004.36,0003.37
2021-09-14 10:59:00,,0828.5,5.01,0.00,29.4,28.7,00.0,38.6,31.1,23.5,0000.0,0011.40,0004.35,0003.37
